Regional Weather Roundup
Issued by NWS Sioux Falls, SD

Home | Current Version | Previous Version | Graphics & Text | Print | Product List | Glossary Off
Versions: 1 2 3 4 5 6 7 8 9 10 11 12 13 14 15 16 17 18 19 20 21 22 23 24 25 26 27 28 29 30 31 32 33 34 35 36 37 38 39 40 41 42 43 44 45 46 47 48 49 50

000
ASUS43 KFSD 191710
RWRFSD

WEATHER ROUNDUP FOR SE SOUTH DAKOTA/SW MINNESOTA/NW IOWA
NATIONAL WEATHER SERVICE SIOUX FALLS SD
1200 PM CDT SUN OCT 19 2014

NOTE: "FAIR" INDICATES FEW OR NO CLOUDS BELOW 12,000 FEET WITH NO
SIGNIFICANT WEATHER AND OR OBSTRUCTIONS TO VISIBILITY.


SDZ038>040-050-052>070-191800-
SOUTHEAST SOUTH DAKOTA

CITY           SKY/WX    TMP DP  RH WIND       PRES   REMARKS
CHAMBERLAIN    SUNNY     65  44  46 W7        29.95F
HURON          SUNNY     67  42  40 NW10      29.91S
MADISON        FAIR      61  45  55 SW12      29.91F
MITCHELL       SUNNY     68  44  42 W7        29.93S
SIOUX FALLS    MOSUNNY   62  45  53 W12       29.92F
WINNER         FAIR      71  41  33 NW8       29.98S
YANKTON        SUNNY     61  46  59 W9        29.95S
$$

MNZ071-072-080-081-089-090-097-098-191800-
SOUTHWEST MINNESOTA

CITY           SKY/WX    TMP DP  RH WIND       PRES   REMARKS
FAIRMONT       MOSUNNY   61  41  48 SW20      29.91F
JACKSON        MOSUNNY   59  41  51 SW16G24   29.92S
LUVERNE        SUNNY     61  43  51 W12G17    29.92F
MARSHALL       SUNNY     63  43  48 W20       29.85F
MONTEVIDEO     SUNNY     64  45  48 NW10      29.85S
PIPESTONE      SUNNY     59  45  58 W12       29.91S
REDWOOD FALLS  SUNNY     63  43  48 W15G21    29.86F
TRACY          SUNNY     63  44  50 SW15G22   29.87F
WINDOM         SUNNY     61  43  51 SW20G26   29.88F
WORTHINGTON    SUNNY     57  43  58 SW16G22   29.92F
$$

IAZ001>003-012>014-020>022-031-032-NEZ013-014-SDZ071-191800-
NORTHWEST IOWA

CITY           SKY/WX    TMP DP  RH WIND       PRES   REMARKS
CHEROKEE       PTSUNNY   60  46  59 SW21G29   29.97F
DENISON        PTSUNNY   61  45  55 SW15G25   29.99F
ESTHERVILLE    MOSUNNY   61  43  51 SW24G36   29.92F
LE MARS        MOSUNNY   63  45  51 SW20      29.95F
ORANGE CITY    MOSUNNY   63  43  48 W18G25    29.94F
SHELDON        MOSUNNY   61  45  55 SW20      29.93F
SIOUX CITY     MOSUNNY   65  44  46 SW10G22   29.98F
SPENCER        MOSUNNY   61  43  51 SW21G28   29.95S
STORM LAKE     PTSUNNY   61  43  51 SW22G35   29.97F
$$

ABBREVIATIONS USED IN REMARKS
   TC - TEMPERATURE IN CELSIUS
  WCI - WIND CHILL INDEX
   HX - HEAT INDEX
  VSB - VISIBILITY



USA.gov is the U.S. government's official web portal to all federal, state and local government web resources and services.